Regional Weather Roundup
Issued by NWS Albany, NY

Home | Current Version | Previous Version | Text Only | Print | Product List | Glossary On
Versions: 1 2 3 4 5 6 7 8 9 10 11 12 13 14 15 16 17 18 19 20 21 22 23 24 25 26 27
000
ASUS41 KALY 010410
RWRALY

NEW YORK STATE HOURLY WEATHER ROUNDUP
NATIONAL WEATHER SERVICE ALBANY NY
1200 AM EDT SUN MAY 01 2016

NOTE: "FAIR" INDICATES FEW OR NO CLOUDS BELOW 12,000 FEET WITH NO
SIGNIFICANT WEATHER AND/OR NO OBSTRUCTIONS TO VISIBILITY.

NYZ032-033-038>043-046>054-057>066-NYZ062>081-082-084-010500-
EAST


CITY           SKY/WX    TMP DP  RH WIND       PRES   REMARKS
ALBANY         MOCLDY    55  39  54 S6        30.18S
GLENS FALLS    CLOUDY    48  34  58 CALM      30.19S
POUGHKEEPSIE   PTCLDY    51  38  60 SE5       30.21S
NEWBURGH       PTCLDY    50  34  53 VRB5      30.21F
MONTGOMERY     PTCLDY    50  36  58 S3        30.21S
WHITE PLAINS   CLOUDY    46  38  73 SE5       30.24R
ISLIP          MOCLDY    47  37  68 CALM      30.24F
NEW YORK CITY  CLOUDY    51  37  58 S8        30.24S
CENTRAL PARK   CLOUDY    50  36  58 MISG      30.26S
$$

NYZ005>009-017-018-044>046-055-056-010500-
CENTRAL


CITY           SKY/WX    TMP DP  RH WIND       PRES   REMARKS
FULTON         CLOUDY    53  34  48 SW5       30.14F
SYRACUSE       CLOUDY    54  41  61 S7        30.14S
ROME           PTCLDY    51  42  71 E3        30.16F
ELMIRA         CLOUDY    52  41  66 CALM      30.12F
BINGHAMTON     CLOUDY    49  40  71 S8        30.14F
MONTICELLO     MOCLDY    48  41  76 S3        30.20F
$$

NYZ026>034-041>043-087-010500-
NORTH


CITY           SKY/WX    TMP DP  RH WIND       PRES   REMARKS
WATERTOWN      CLOUDY    49  28  44 NE3       30.14F
FORT DRUM      NOT AVBL
MASSENA        PTCLDY    46  22  38 E7        30.19S
SARANAC LAKE   CLOUDY    42  17  36 E5        30.15F
PLATTSBURGH    CLOUDY    40  27  59 CALM      30.19F
$$

NYZ001>004-010>016-019>021-085-010500-
WEST


CITY           SKY/WX    TMP DP  RH WIND       PRES   REMARKS
NIAGARA FALLS  CLOUDY    52  34  50 E7        30.07F
BUFFALO        CLOUDY    54  41  61 E7        30.07F
DUNKIRK        LGT RAIN  51  45  79 SE14G22   30.04F
JAMESTOWN      CLOUDY    46  43  87 SE7       30.04F
WELLSVILLE     LGT RAIN  45  43  93 SE12      30.09F FOG
ROCHESTER      CLOUDY    53  35  50 E7        30.11F
PENN YAN       CLOUDY    52  41  66 SE6       30.12F
$$

             KEY
       WCI = WIND CHILL INDEX
       VSB = VISIBILITY
       HX  = HEAT INDEX
$$




USA.gov is the U.S. government's official web portal to all federal, state and local government web resources and services.